KC5NAM Weather Reports


Display with metric or nautical units.
time (UTC)temp
F
wind
direction
speed
MPH
gust
MPH
rain 1hr
in
rain 24hr
in
rain mn
in
humidity
%
barometer
mb
20260901162535 96 0 3.0 10.0 0.00 0.00 0.00 44 1021.0
20260901162034 95 0 0.0 7.0 0.00 0.00 0.00 49 1021.1
20260901161553 95 159 2.0 7.0 0.00 0.00 0.00 51 1021.0
20260901161035 95 0 0.0 4.0 0.00 0.00 0.00 53 1021.0
20260901160534 95 242 0.0 7.0 0.00 0.00 0.00 53 1020.9
20260901160108 94 0 1.0 7.0 0.00 0.00 0.00 56 1021.0
20260901155535 93 0 1.0 7.0 0.00 0.00 0.00 56 1021.0
20260901155035 94 0 1.0 6.0 0.00 0.00 0.00 56 1021.0
20260901154558 94 77 0.0 5.0 0.00 0.00 0.00 57 1021.0
20260901154035 93 0 1.0 7.0 0.00 0.00 0.00 56 1021.1
20260901153535 93 0 2.0 7.0 0.00 0.00 0.00 58 1021.0
20260901153101 92 0 2.0 5.0 0.00 0.00 0.00 60 1021.0
20260901152534 92 151 2.0 5.0 0.00 0.00 0.00 60 1021.0
20260901152034 91 161 0.0 5.0 0.00 0.00 0.00 62 1021.1
20260901151552 91 0 1.0 8.0 0.00 0.00 0.00 63 1020.9
20260901151035 90 153 1.0 8.0 0.00 0.00 0.00 61 1021.0
20260901150534 90 126 3.0 7.0 0.00 0.00 0.00 63 1021.0
20260901150107 89 211 1.0 7.0 0.00 0.00 0.00 65 1021.0
20260901145535 89 163 2.0 7.0 0.00 0.00 0.00 65 1021.0
20260901145034 89 163 2.0 5.0 0.00 0.00 0.00 66 1021.0
20260901144557 88 169 0.0 5.0 0.00 0.00 0.00 69 1021.1
20260901144034 88 156 1.0 5.0 0.00 0.00 0.00 69 1021.0
20260901143535 88 198 0.0 8.0 0.00 0.00 0.00 68 1021.0
20260901143112 88 151 1.0 8.0 0.00 0.00 0.00 71 1021.0
20260901142536 87 46 0.0 5.0 0.00 0.00 0.00 73 1021.0
20260901142035 86 179 0.0 6.0 0.00 0.00 0.00 75 1021.0
20260901141549 86 0 0.0 6.0 0.00 0.00 0.00 75 1020.9
20260901141035 85 140 0.0 6.0 0.00 0.00 0.00 79 1020.9
20260901140534 84 0 0.0 6.0 0.00 0.00 0.00 80 1020.8
20260901140132 83 177 0.0 4.0 0.00 0.00 0.00 80 1020.8
20260901135535 82 0 1.0 4.0 0.00 0.00 0.00 83 1020.8
20260901135034 82 205 0.0 3.0 0.00 0.00 0.00 85 1020.8
20260901134551 82 0 0.0 3.0 0.00 0.00 0.00 88 1020.8
20260901134036 81 0 0.0 0.0 0.00 0.00 0.00 89 1020.7
20260901133535 80 0 0.0 0.0 0.00 0.00 0.00 90 1020.7
20260901133047 79 0 0.0 0.0 0.00 0.00 0.00 91 1020.7
20260901132537 79 0 0.0 0.0 0.00 0.00 0.00 92 1020.7
20260901132037 78 0 0.0 0.0 0.00 0.00 0.00 93 1020.5
20260901131558 78 0 0.0 0.0 0.00 0.00 0.00 93 1020.6
20260901131035 77 0 0.0 0.0 0.00 0.00 0.00 93 1020.5
20260901130535 77 0 0.0 0.0 0.00 0.00 0.00 93 1020.4
20260901130050 77 0 0.0 0.0 0.00 0.00 0.00 93 1020.3
20260901125534 77 0 0.0 0.0 0.00 0.00 0.00 93 1020.2
20260901125035 77 0 0.0 0.0 0.00 0.00 0.00 92 1020.2
20260901124545 77 0 0.0 0.0 0.00 0.00 0.00 92 1020.1
20260901124036 77 0 0.0 0.0 0.00 0.00 0.00 92 1020.1
20260901123535 77 0 0.0 0.0 0.00 0.00 0.00 92 1020.0
20260901123053 77 0 0.0 0.0 0.00 0.00 0.00 91 1020.0
20260901122535 77 0 0.0 0.0 0.00 0.00 0.00 91 1020.1
20260901122034 77 0 0.0 0.0 0.00 0.00 0.00 91 1020.1
20260901121553 77 0 0.0 0.0 0.00 0.00 0.00 91 1019.9
20260901121035 77 0 0.0 0.0 0.00 0.00 0.00 91 1019.9
20260901120535 77 0 0.0 0.0 0.00 0.00 0.00 91 1020.0
20260901120047 77 0 0.0 0.0 0.00 0.00 0.00 91 1020.1
20260901115535 77 0 0.0 0.0 0.00 0.00 0.00 91 1020.2
20260901115035 77 0 0.0 0.0 0.00 0.00 0.00 91 1020.2
20260901114553 78 0 0.0 0.0 0.00 0.00 0.00 91 1020.2
20260901114036 78 0 0.0 0.0 0.00 0.00 0.00 91 1020.1
20260901113535 78 0 0.0 0.0 0.00 0.00 0.00 91 1020.2
20260901113051 78 0 0.0 0.0 0.00 0.00 0.00 91 1020.1
20260901112534 78 0 0.0 0.0 0.00 0.00 0.00 91 1020.2
20260901112035 78 0 0.0 0.0 0.00 0.00 0.00 90 1020.2
20260901111550 78 0 0.0 0.0 0.00 0.00 0.00 90 1020.2
20260901111035 78 0 0.0 0.0 0.00 0.00 0.00 90 1020.1
20260901110535 78 0 0.0 0.0 0.00 0.00 0.00 91 1020.1
20260901110044 78 0 0.0 0.0 0.00 0.00 0.00 91 1020.3
20260901105534 78 0 0.0 0.0 0.00 0.00 0.00 91 1020.2
20260901105037 78 0 0.0 1.0 0.00 0.00 0.00 91 1020.2
20260901104602 78 0 0.0 1.0 0.00 0.00 0.00 91 1020.2
20260901104036 78 0 0.0 2.0 0.00 0.00 0.00 91 1020.3
20260901103535 78 0 0.0 2.0 0.00 0.00 0.00 92 1020.3
20260901103052 78 0 0.0 2.0 0.00 0.00 0.00 92 1020.2
20260901102534 78 0 0.0 0.0 0.00 0.00 0.00 92 1020.2
20260901102034 77 0 0.0 0.0 0.00 0.00 0.00 92 1020.2
20260901101603 77 0 0.0 0.0 0.00 0.00 0.00 91 1020.0
20260901101035 77 0 0.0 0.0 0.00 0.00 0.00 91 1020.0
20260901100536 77 0 0.0 0.0 0.00 0.00 0.00 91 1020.0
20260901100049 77 0 0.0 0.0 0.00 0.00 0.00 90 1020.0
20260901095535 77 0 0.0 0.0 0.00 0.00 0.00 90 1019.9
20260901095040 77 0 0.0 0.0 0.00 0.00 0.00 90 1019.9
20260901094545 77 0 0.0 0.0 0.00 0.00 0.00 90 1019.9
20260901094035 78 0 0.0 0.0 0.00 0.00 0.00 90 1019.9
20260901093534 78 0 0.0 0.0 0.00 0.00 0.00 90 1019.9
20260901093101 78 0 0.0 0.0 0.00 0.00 0.00 90 1020.0
20260901092534 78 0 0.0 0.0 0.00 0.00 0.00 90 1019.9
20260901092036 78 0 0.0 0.0 0.00 0.00 0.00 89 1020.0
20260901091554 78 0 0.0 0.0 0.00 0.00 0.00 89 1020.0
20260901091035 78 0 0.0 0.0 0.00 0.00 0.00 89 1020.0
20260901090538 78 0 0.0 0.0 0.00 0.00 0.00 89 1020.0
20260901090054 78 0 0.0 0.0 0.00 0.00 0.00 89 1020.0
20260901085534 78 0 0.0 0.0 0.00 0.00 0.00 89 1020.0
20260901085034 78 0 0.0 0.0 0.00 0.00 0.00 89 1020.2
20260901084552 79 0 0.0 0.0 0.00 0.00 0.00 89 1020.2
20260901084035 79 0 0.0 0.0 0.00 0.00 0.00 89 1020.1
20260901083535 79 0 0.0 0.0 0.00 0.00 0.00 88 1020.2
20260901083051 79 0 0.0 0.0 0.00 0.00 0.00 88 1020.2
20260901082535 79 0 0.0 0.0 0.00 0.00 0.00 88 1020.2
20260901082035 79 0 0.0 0.0 0.00 0.00 0.00 88 1020.2
20260901081550 79 0 0.0 0.0 0.00 0.00 0.00 88 1020.2
20260901081035 79 0 0.0 0.0 0.00 0.00 0.00 87 1020.2
20260901080539 79 0 0.0 0.0 0.00 0.00 0.00 87 1020.1
20260901080137 79 0 0.0 0.0 0.00 0.00 0.00 87 1020.2
20260901075535 79 0 0.0 0.0 0.00 0.00 0.00 87 1020.2
20260901075035 79 0 0.0 1.0 0.00 0.00 0.00 87 1020.1
20260901074553 80 0 0.0 2.0 0.00 0.00 0.00 87 1020.1
20260901074035 80 0 0.0 2.0 0.00 0.00 0.00 86 1020.1
20260901073535 80 0 0.0 1.0 0.00 0.00 0.00 86 1020.1
20260901073053 80 0 0.0 5.0 0.00 0.00 0.00 86 1020.0
20260901072535 80 0 0.0 5.0 0.00 0.00 0.00 86 1020.0
20260901072036 80 0 1.0 4.0 0.00 0.00 0.00 85 1020.1
20260901071555 80 150 1.0 3.0 0.00 0.00 0.00 85 1020.1
20260901071034 80 150 0.0 2.0 0.00 0.00 0.00 85 1020.1
20260901070534 80 0 0.0 4.0 0.00 0.00 0.00 85 1020.1
20260901070112 80 0 0.0 5.0 0.00 0.00 0.00 85 1020.2
20260901065535 80 177 0.0 5.0 0.00 0.00 0.00 84 1020.2
20260901065035 81 145 0.0 7.0 0.00 0.00 0.00 84 1020.2
20260901064604 81 172 1.0 7.0 0.00 0.00 0.00 84 1020.2
20260901064036 81 0 0.0 5.0 0.00 0.00 0.00 84 1020.1
20260901063535 81 0 0.0 5.0 0.00 0.00 0.00 83 1020.1
20260901063059 81 53 1.0 7.0 0.00 0.00 0.00 83 1020.1
20260901062535 81 0 1.0 8.0 0.00 0.00 0.00 82 1020.2
20260901062035 81 146 3.0 10.0 0.00 0.00 0.00 82 1020.1
20260901061558 81 199 3.0 10.0 0.00 0.00 0.00 82 1020.1
20260901061035 81 169 3.0 6.0 0.00 0.00 0.00 82 1020.0
20260901060538 81 129 1.0 7.0 0.00 0.00 0.00 81 1020.0
20260901060050 81 113 1.0 8.0 0.00 0.00 0.00 81 1019.9
20260901055536 82 360 2.0 9.0 0.00 0.00 0.00 80 1019.9
20260901055037 82 107 3.0 9.0 0.00 0.00 0.00 80 1019.8
20260901054549 82 111 3.0 8.0 0.00 0.00 0.00 79 1019.9
20260901054035 82 157 2.0 5.0 0.00 0.00 0.00 79 1019.8
20260901053537 82 136 1.0 8.0 0.00 0.00 0.00 78 1019.8
20260901053102 82 146 3.0 9.0 0.00 0.00 0.00 77 1019.8
20260901052534 82 163 2.0 9.0 0.00 0.00 0.00 77 1019.7
20260901052034 83 173 3.0 9.0 0.00 0.00 0.00 77 1019.7
20260901051552 83 155 2.0 8.0 0.00 0.00 0.00 76 1019.7
20260901051035 83 90 3.0 12.0 0.00 0.00 0.00 76 1019.6
20260901050534 83 134 2.0 12.0 0.00 0.00 0.00 75 1019.5
20260901050052 83 136 3.0 12.0 0.00 0.00 0.00 75 1019.5
20260901045537 83 119 3.0 10.0 0.00 0.00 0.00 74 1019.5
20260901045035 83 171 2.0 11.0 0.00 0.00 0.00 74 1019.5
20260901044603 83 93 3.0 11.0 0.00 0.00 0.00 73 1019.5
20260901044035 84 123 3.0 11.0 0.00 0.00 0.00 73 1019.4
20260901043535 84 140 3.0 12.0 0.00 0.00 0.00 73 1019.4
20260901043056 84 163 6.0 12.0 0.00 0.00 0.00 72 1019.4
20260901042534 84 0 1.0 9.0 0.00 0.00 0.00 71 1019.4
20260901042035 84 111 4.0 11.0 0.00 0.00 0.00 71 1019.4
20260901041552 85 130 3.0 11.0 0.00 0.00 0.00 71 1019.5
20260901041038 85 109 4.0 10.0 0.00 0.00 0.00 70 1019.6
20260901040535 85 150 4.0 11.0 0.00 0.00 0.00 70 1019.5
20260901035534 85 360 3.0 13.0 0.00 0.00 0.00 69 1019.4
20260901035033 86 360 4.0 13.0 0.00 0.00 0.00 68 1019.4
20260901034544 86 117 3.0 12.0 0.00 0.00 0.00 67 1019.5
20260901034035 86 102 5.0 12.0 0.00 0.00 0.00 67 1019.4
20260901033535 86 92 3.0 9.0 0.00 0.00 0.00 66 1019.4
20260901033053 86 82 4.0 9.0 0.00 0.00 0.00 66 1019.4
20260901032535 86 134 3.0 9.0 0.00 0.00 0.00 65 1019.3
20260901032035 87 158 3.0 14.0 0.00 0.00 0.00 64 1019.3
20260901031552 87 92 5.0 14.0 0.00 0.00 0.00 64 1019.3
20260901031036 87 86 5.0 13.0 0.00 0.00 0.00 64 1019.2
20260901030535 87 165 5.0 13.0 0.00 0.00 0.00 63 1019.1
20260901030050 87 108 4.0 11.0 0.00 0.00 0.00 63 1019.0
20260901025536 87 159 5.0 15.0 0.00 0.00 0.00 63 1018.9
20260901025035 88 165 6.0 15.0 0.00 0.00 0.00 62 1018.8
20260901024550 88 154 5.0 15.0 0.00 0.00 0.00 62 1018.8
20260901024035 88 360 4.0 13.0 0.00 0.00 0.00 62 1018.7
20260901023534 88 139 5.0 13.0 0.00 0.00 0.00 61 1018.6
20260901023053 89 360 3.0 11.0 0.00 0.00 0.00 61 1018.4
20260901022534 89 153 2.0 9.0 0.00 0.00 0.00 60 1018.3
20260901022038 89 360 5.0 11.0 0.00 0.00 0.00 59 1018.3
20260901021605 89 128 4.0 11.0 0.00 0.00 0.00 59 1018.2
20260901021036 89 162 5.0 11.0 0.00 0.00 0.00 58 1018.1
20260901020535 90 155 4.0 12.0 0.00 0.00 0.00 57 1018.1
20260901020052 90 154 4.0 12.0 0.00 0.00 0.00 57 1018.1
20260901015535 90 153 4.0 11.0 0.00 0.00 0.00 56 1018.0
20260901015035 90 79 3.0 11.0 0.00 0.00 0.00 56 1017.9
20260901014552 91 119 4.0 11.0 0.00 0.00 0.00 55 1017.8
20260901014035 91 152 4.0 11.0 0.00 0.00 0.00 55 1017.8
20260901013535 91 178 6.0 11.0 0.00 0.00 0.00 54 1017.7
20260901013108 91 133 5.0 11.0 0.00 0.00 0.00 54 1017.6
20260901012534 92 98 5.0 11.0 0.00 0.00 0.00 53 1017.6
20260901012036 92 131 5.0 16.0 0.00 0.00 0.00 52 1017.6
20260901011549 93 107 4.0 16.0 0.00 0.00 0.00 51 1017.4
20260901011035 93 155 7.0 16.0 0.00 0.00 0.00 50 1017.4
20260901010536 94 360 6.0 12.0 0.00 0.00 0.00 49 1017.3
20260901010049 94 36 4.0 12.0 0.00 0.00 0.00 48 1017.3
20260901005535 94 130 4.0 12.0 0.00 0.00 0.00 47 1017.1
20260901005035 95 94 3.0 8.0 0.00 0.00 0.00 46 1017.1
20260901004558 95 92 2.0 7.0 0.00 0.00 0.00 46 1016.9
20260901004034 96 360 2.0 7.0 0.00 0.00 0.00 45 1016.9
20260901003537 96 136 1.0 10.0 0.00 0.00 0.00 45 1017.0
20260901003054 97 164 3.0 11.0 0.00 0.00 0.00 45 1017.0
20260901002535 97 120 2.0 11.0 0.00 0.00 0.00 44 1016.9
20260901002034 97 82 4.0 11.0 0.00 0.00 0.00 44 1016.8
20260901001549 98 88 5.0 10.0 0.00 0.00 0.00 43 1016.8
20260901001038 98 98 3.0 12.0 0.00 0.00 0.00 42 1016.8
20260901000535 99 118 5.0 12.0 0.00 0.00 0.00 41 1016.8
20260901000059 99 96 5.0 13.0 0.00 0.00 0.00 40 1016.7
20260831235534 99 86 5.0 13.0 0.00 0.00 0.00 40 1016.5
20260831235037 99 82 4.0 9.0 0.00 0.00 0.00 41 1016.6
20260831234553 99 70 3.0 7.0 0.00 0.00 0.00 41 1016.6
20260831234035 99 159 2.0 6.0 0.00 0.00 0.00 40 1016.6
20260831233535 99 153 1.0 7.0 0.00 0.00 0.00 40 1016.6
20260831233047 99 150 3.0 8.0 0.00 0.00 0.00 40 1016.6
20260831232538 99 138 3.0 10.0 0.00 0.00 0.00 40 1016.6
20260831232038 99 150 3.0 12.0 0.00 0.00 0.00 40 1016.5
20260831231605 100 181 4.0 12.0 0.00 0.00 0.00 40 1016.6
20260831231037 100 91 6.0 12.0 0.00 0.00 0.00 39 1016.5
20260831230535 100 78 3.0 10.0 0.00 0.00 0.00 39 1016.5
20260831230056 100 96 0.0 10.0 0.00 0.00 0.00 39 1016.5
20260831225534 100 120 4.0 10.0 0.00 0.00 0.00 38 1016.5
20260831225034 100 57 5.0 9.0 0.00 0.00 0.00 37 1016.6
20260831224624 100 149 3.0 9.0 0.00 0.00 0.00 39 1016.6
20260831224035 100 0 2.0 11.0 0.00 0.00 0.00 38 1016.6
20260831223534 100 169 4.0 11.0 0.00 0.00 0.00 39 1016.7
20260831223051 100 163 1.0 8.0 0.00 0.00 0.00 39 1016.7
20260831222535 100 66 3.0 9.0 0.00 0.00 0.00 38 1016.9
20260831222035 101 115 2.0 9.0 0.00 0.00 0.00 38 1017.0
20260831221608 101 79 4.0 9.0 0.00 0.00 0.00 39 1016.9
20260831221035 100 11 2.0 8.0 0.00 0.00 0.00 39 1017.0
20260831220535 100 163 4.0 8.0 0.00 0.00 0.00 38 1017.0
20260831220056 100 124 0.0 9.0 0.00 0.00 0.00 40 1017.1
20260831215535 100 184 0.0 9.0 0.00 0.00 0.00 39 1017.1
20260831215034 100 145 4.0 8.0 0.00 0.00 0.00 39 1017.3
20260831214552 99 113 3.0 9.0 0.00 0.00 0.00 41 1017.4
20260831214035 99 144 3.0 12.0 0.00 0.00 0.00 38 1017.4
20260831213535 99 175 3.0 12.0 0.00 0.00 0.00 40 1017.6
20260831213052 99 71 2.0 15.0 0.00 0.00 0.00 41 1017.5
20260831212535 99 194 5.0 15.0 0.00 0.00 0.00 42 1017.6
20260831212035 99 162 4.0 10.0 0.00 0.00 0.00 41 1017.7
20260831211602 99 0 3.0 8.0 0.00 0.00 0.00 41 1017.7
20260831211034 100 165 4.0 8.0 0.00 0.00 0.00 40 1017.8
20260831210534 100 151 0.0 9.0 0.00 0.00 0.00 38 1017.9
20260831210045 101 0 0.0 9.0 0.00 0.00 0.00 39 1017.9
20260831205534 102 92 2.0 10.0 0.00 0.00 0.00 39 1018.0
20260831205036 102 93 3.0 11.0 0.00 0.00 0.00 39 1018.2
20260831204552 102 68 3.0 11.0 0.00 0.00 0.00 40 1018.2
20260831204035 103 0 1.0 10.0 0.00 0.00 0.00 38 1018.3
20260831203535 103 107 3.0 10.0 0.00 0.00 0.00 40 1018.3
20260831203051 102 0 2.0 9.0 0.00 0.00 0.00 41 1018.4
20260831202535 101 98 4.0 11.0 0.00 0.00 0.00 40 1018.5
20260831202040 102 78 3.0 11.0 0.00 0.00 0.00 39 1018.6
20260831201548 102 85 3.0 11.0 0.00 0.00 0.00 41 1018.7
20260831201035 102 131 5.0 11.0 0.00 0.00 0.00 41 1018.8
20260831200534 102 165 3.0 11.0 0.00 0.00 0.00 40 1018.9
20260831200054 101 180 3.0 11.0 0.00 0.00 0.00 42 1019.1
20260831195538 101 100 0.0 7.0 0.00 0.00 0.00 42 1019.1
20260831195038 100 167 1.0 9.0 0.00 0.00 0.00 42 1019.2
20260831194558 100 156 2.0 11.0 0.00 0.00 0.00 43 1019.3
20260831194035 100 80 4.0 11.0 0.00 0.00 0.00 43 1019.4
20260831193539 101 92 3.0 11.0 0.00 0.00 0.00 42 1019.4
20260831193056 100 0 3.0 10.0 0.00 0.00 0.00 42 1019.5
20260831192535 100 150 5.0 10.0 0.00 0.00 0.00 42 1019.6
20260831192035 100 132 1.0 11.0 0.00 0.00 0.00 43 1019.6
20260831191549 102 207 4.0 11.0 0.00 0.00 0.00 42 1019.7
20260831191037 102 140 2.0 10.0 0.00 0.00 0.00 42 1019.8
20260831190536 102 154 3.0 10.0 0.00 0.00 0.00 43 1019.7
20260831190059 101 136 3.0 10.0 0.00 0.00 0.00 42 1019.8
20260831185536 101 171 4.0 12.0 0.00 0.00 0.00 44 1019.9
20260831185035 101 189 5.0 12.0 0.00 0.00 0.00 43 1020.0
20260831184553 101 170 4.0 10.0 0.00 0.00 0.00 43 1020.0
20260831184035 101 0 3.0 9.0 0.00 0.00 0.00 44 1020.1
20260831183535 101 100 4.0 8.0 0.00 0.00 0.00 44 1020.1
20260831183048 100 23 1.0 8.0 0.00 0.00 0.00 43 1020.2
20260831182535 100 360 3.0 10.0 0.00 0.00 0.00 45 1020.2
20260831182035 100 131 3.0 11.0 0.00 0.00 0.00 44 1020.2
20260831181548 100 120 5.0 11.0 0.00 0.00 0.00 45 1020.3
20260831181035 99 144 5.0 11.0 0.00 0.00 0.00 45 1020.4
20260831180535 98 82 3.0 12.0 0.00 0.00 0.00 44 1020.4
20260831180055 97 173 3.0 12.0 0.00 0.00 0.00 48 1020.4
20260831175540 97 150 2.0 11.0 0.00 0.00 0.00 49 1020.5
20260831175037 97 161 4.0 12.0 0.00 0.00 0.00 47 1020.5
20260831174549 97 167 6.0 12.0 0.00 0.00 0.00 47 1020.6
20260831174035 97 162 2.0 7.0 0.00 0.00 0.00 49 1020.7
20260831173535 97 0 2.0 13.0 0.00 0.00 0.00 48 1020.7
20260831173053 97 113 4.0 13.0 0.00 0.00 0.00 51 1020.8
20260831172537 97 135 1.0 10.0 0.00 0.00 0.00 50 1020.8
20260831172034 98 143 3.0 12.0 0.00 0.00 0.00 47 1020.9
20260831171555 98 360 6.0 12.0 0.00 0.00 0.00 48 1020.9
20260831171035 97 164 2.0 11.0 0.00 0.00 0.00 49 1020.9
20260831170535 97 122 4.0 11.0 0.00 0.00 0.00 52 1020.9
20260831170113 96 82 1.0 10.0 0.00 0.00 0.00 53 1020.9
20260831165535 96 217 5.0 10.0 0.00 0.00 0.00 51 1021.0
20260831165035 96 164 3.0 8.0 0.00 0.00 0.00 56 1021.0
20260831164551 96 204 1.0 8.0 0.00 0.00 0.00 55 1020.9
20260831164035 96 135 2.0 9.0 0.00 0.00 0.00 55 1021.1
20260831163535 95 54 4.0 9.0 0.00 0.00 0.00 56 1021.1
20260831163045 95 134 3.0 11.0 0.00 0.00 0.00 56 1021.2